Regional Weather Roundup
Issued by NWS

Home | Current Version | Previous Version | Text Only | Print | Product List | Glossary On
Versions: 1 2 3 4 5 6 7 8 9 10 11 12 13 14 15 16 17 18 19 20 21 22 23 24 25 26 27 28 29 30 31 32 33 34 35 36 37 38 39 40 41 42 43 44 45 46 47 48 49 50
000
ASCA44 KEWX 010220
RWRMX

LATIN AMERICA AND CARIBBEAN REGIONAL WEATHER ROUNDUP
NATIONAL WEATHER SERVICE AUSTIN/SAN ANTONIO TX
900 PM CDT SAT APR 30 2016

NOTE: "FAIR" INDICATED FEW OR NO CLOUDS BELOW 12,000 FEET WITH NO
SIGNIFICANT WEATHER AND/OR OBSTRUCTIONS TO VISIBILITY.

BAJA CALIFORNIA

CITY           SKY/WX    TMP DP  RH WIND       PRES   REMARKS
LORETO           N/A    N/A N/A N/A MISG        N/A
LA PAZ         PTCLDY    75  46  35 S6        29.83
MEXICALI       PTCLDY    73  41  31 NW13      29.67
S.J. DEL CABO  PTCLDY    75  52  43 E14       29.80R
TIJUANA        PTCLDY    59  46  63 NW8       29.85R

NORTHWESTERN MEXICO

CITY           SKY/WX    TMP DP  RH WIND       PRES   REMARKS
CULIACAN       PTCLDY    81  63  54 SW7       29.80
DURANGO        CLOUDY    73  16  11 SW18      29.99
GUAYMAS        CLEAR     79  52  38 S8        29.68
HERMOSILLO     CLEAR     77  46  33 S16       29.74
CD. JUAREZ     PTCLDY    73  34  23 NE6       29.68
LOS MOCHIS     CLEAR     75  43  31 SW5       29.77R
OBREGON        CLEAR     75  34  22 S6        29.72

NORTHEASTERN MEXICO

CITY           SKY/WX    TMP DP  RH WIND       PRES   REMARKS
CHIHUAHUA      CLEAR     79  21  11 W5        29.75
MATAMOROS      MOCLDY    81  77  89 E6        29.65
MONCLOVA         N/A    N/A N/A N/A MISG        N/A
MONTERREY      MOCLDY    82  32  16 E6        29.71R
NUEVO LAREDO     N/A    N/A N/A N/A MISG        N/A
PIEDRAS NEGRAS   N/A    N/A N/A N/A MISG        N/A
REYNOSA        MOCLDY    82  68  61 E9        29.66
SALTILLO       PTCLDY    73  46  38 N9        29.95R
TORREON        MOCLDY    84  23  10 NE2       29.76R
CD. VICTORIA     N/A    N/A N/A N/A MISG        N/A

WESTERN MEXICO

CITY           SKY/WX    TMP DP  RH WIND       PRES   REMARKS
AGUASCALIENTES PTCLDY    70   9   9 SW8       30.07
COLIMA         MOCLDY    72  61  68 W7        29.92R
DEL BAJIO      PTCLDY    72  12  10 W6        30.12R
GUADALAJARA    MOCLDY    77  10   8 SW5       30.00
MANZANILLO     PTCLDY    73  68  83 W6        29.77R
MAZATLAN       MOCLDY    73  64  73 W5        29.80R
P. VALLARTA    CLOUDY    77  70  78 W6        29.81
URUAPAN        CLOUDY    70  43  37 CALM      30.05R
ZACATECAS        N/A    N/A N/A N/A MISG        N/A

CENTRAL MEXICO

CITY           SKY/WX    TMP DP  RH WIND       PRES   REMARKS
CUERNAVACA       N/A    N/A N/A N/A MISG        N/A
MEXICO CITY    MOCLDY    73  32  21 SE13G24   30.17R
MORELIA        MOCLDY    72  23  16 S9        30.08
POZA RICA        N/A    N/A N/A N/A MISG        N/A
PUEBLA         MOCLDY    64  32  29 SE5       30.19R
QUERETARO      MOCLDY    73  21  14 CALM      30.13R
S. LUIS POTOSI MOCLDY    75   1   5 S6        30.02R
TAMPICO        MOCLDY    81  77  89 NE12      29.65R HAZE
TOLUCA         CLOUDY    66  25  20 NE8       30.28R

SOUTHERN MEXICO

CITY           SKY/WX    TMP DP  RH WIND       PRES   REMARKS
ACAPULCO       MOCLDY    77  72  83 W8        29.79R
B. DE HUATULCO   N/A    N/A N/A N/A MISG        N/A
OAXACA         CLOUDY    81  43  26 S10       30.03R
P. ESCONDIDO     N/A    N/A N/A N/A MISG        N/A
VERACRUZ       MOCLDY    84  77  79 E3        29.66R HX  94
ZIHUATANEJO    MOCLDY    77  70  78 W3        29.80R

YUCATAN PENINSULA

CITY           SKY/WX    TMP DP  RH WIND       PRES   REMARKS
CAMPECHE       PTCLDY    91  73  55 E16       29.66R HX 100
CANCUN         PTCLDY    82  77  83 E12       29.83R HX  91
CHETUMAL       PTCLDY    84  77  79 SE13      29.76R HX  94
CD. DEL CARMEN   N/A    N/A N/A N/A MISG        N/A
COZUMEL        MOCLDY    77  75  94 SE13      29.82R
MERIDA         CLOUDY    91  70  49 SE16      29.72R HX  97
MINATITLAN       N/A    N/A N/A N/A MISG        N/A
TAPACHULA      CLEAR     84  73  70 CALM      29.76R HX  91
TUX. GUTIERREZ PTCLDY    86  66  51 CALM      29.81R
VILLAHERMOSA   PTCLDY    86  79  79 CALM      29.66R HX  99

CENTRAL AMERICA

CITY           SKY/WX    TMP DP  RH WIND       PRES   REMARKS
BELIZE CITY    PTCLDY    84  81  89 E6        29.77R HX  98
MANAGUA        PTCLDY    88  75  66 NW5       29.77R HX  97

CARIBBEAN

CITY           SKY/WX    TMP DP  RH WIND       PRES   REMARKS
ARUBA          PTCLDY    84  77  79 E20       29.80R HX  94
CURACAO        PTCLDY    82  75  78 E17       29.83S
KINGSTON       PTCLDY    84  75  74 NW8       29.86R HX  92
NASSAU         MOCLDY    77  72  83 MISG      30.01R
SAN JUAN       PTCLDY    79  72  78 SE7       29.95R
SANTO DOMINGO  MOCLDY    72  70  94 N7        29.92S
ST. CROIX      CLOUDY    79  70  73 SE7       29.96R
ST. MAARTEN    PTCLDY    81  77  89 E5        29.94S
ST. THOMAS     MOCLDY    81  72  74 SE8       29.95R

$$




USA.gov is the U.S. government's official web portal to all federal, state and local government web resources and services.